Content
SEND FEEDBACK

Daily
Averages
Monthly
Summary
United States of America

WILMINGTON, NORTH CAROLINA


Home > North America > United States > North Carolina
Elevation: 72 feet     Latitude: 34 16N     Longitude: 077 54W

WEATHER
 
SELECT A DAY
Number of Records: 213,315;   Date Range: 1/1/95 - 11/25/14
 
SHARE

PRINT THIS DATA

[ ← Previous Day ]
WEATHER ALMANAC - JULY 15, 2013
[ Next Day → ]
[ °C ]   °F
We're sorry. There is no daily almanac available for Wilmington, North Carolina on July 15, 2013.
WEATHER BY HOUR - JULY 15, 2013
[ °C ]   °F
Local TimeTemperatureDewpointHumidityBarometerVisibilityWind DirectionWind SpeedGust SpeedPrecipitationEventsConditions
12:53 AM77.0 °F75.0 °F94 %30.27 in10.0 miNE (40°)5.8 mphMostly Cloudy
1:16 AM77.0 °F73.4 °F89 %30.26 in10.0 miNE (40°)4.6 mphOvercast
1:26 AM77.0 °F73.4 °F89 %30.26 in10.0 miNNE (30°)4.6 mphOvercast
1:53 AM75.9 °F73.9 °F94 %30.26 in10.0 miNNE (30°)4.6 mphOvercast
2:53 AM75.0 °F73.9 °F96 %30.25 in10.0 miNNE (30°)3.5 mphOvercast
3:44 AM73.4 °F73.4 °F100 %30.25 in10.0 miNNE (30°)3.5 mphScattered Clouds
3:53 AM73.9 °F72.0 °F93 %30.24 in9.0 miNE (40°)4.6 mphPartly Cloudy
4:12 AM73.4 °F73.4 °F100 %30.24 in8.0 miNE (40°)5.8 mphMostly Cloudy
4:51 AM73.4 °F71.6 °F94 %30.25 in9.0 miNNE (30°)5.8 mphScattered Clouds
4:53 AM73.0 °F72.0 °F96 %30.25 in9.0 miNNE (30°)5.8 mphScattered Clouds
5:27 AM73.4 °F71.6 °F94 %30.25 in8.0 miNE (40°)5.8 mphMostly Cloudy
5:53 AM73.9 °F73.0 °F97 %30.26 in8.0 miNNE (30°)4.6 mphOvercast
6:53 AM75.0 °F73.0 °F94 %30.27 in8.0 miNE (40°)4.6 mph0.01 inMostly Cloudy
7:53 AM77.0 °F75.0 °F94 %30.28 in10.0 miNE (40°)4.6 mphScattered Clouds
8:44 AM80.6 °F75.2 °F84 %30.28 in10.0 miNE (40°)4.6 mphMostly Cloudy
8:53 AM80.1 °F75.0 °F85 %30.28 in10.0 miNorth (10°)6.9 mphMostly Cloudy
9:53 AM82.0 °F73.0 °F74 %30.28 in10.0 miENE (70°)10.4 mphMostly Cloudy
10:02 AM82.4 °F73.4 °F74 %30.28 in10.0 miENE (70°)10.4 mphMostly Cloudy
10:53 AM82.9 °F72.0 °F69 %30.29 in10.0 miEast (90°)6.9 mphScattered Clouds
11:53 AM84.9 °F72.0 °F65 %30.29 in10.0 miEast (80°)5.8 mphScattered Clouds
12:53 PM84.9 °F72.0 °F65 %30.29 in10.0 miENE (70°)10.4 mph16.1 mphPartly Cloudy
1:53 PM84.0 °F72.0 °F67 %30.28 in10.0 miEast (90°)8.1 mphScattered Clouds
2:53 PM84.9 °F73.0 °F67 %30.27 in10.0 miEast (80°)8.1 mphClear
3:53 PM84.9 °F72.0 °F65 %30.26 in10.0 miESE (120°)9.2 mphClear
4:53 PM84.9 °F66.0 °F53 %30.25 in10.0 miEast (90°)8.1 mphClear
5:53 PM84.9 °F69.1 °F59 %30.25 in10.0 miESE (110°)6.9 mphClear
6:53 PM82.9 °F68.0 °F60 %30.25 in10.0 miESE (110°)5.8 mphClear
7:53 PM81.0 °F72.0 °F74 %30.25 in10.0 miEast (90°)6.9 mphClear
8:53 PM79.0 °F73.0 °F82 %30.25 in10.0 miEast (100°)4.6 mphClear
9:53 PM77.0 °F73.0 °F88 %30.26 in10.0 miESE (120°)4.6 mphClear
10:53 PM75.0 °F72.0 °F90 %30.27 in10.0 miCalmClear
11:53 PM75.0 °F72.0 °F90 %30.27 in10.0 miCalmClear
Hourly data recorded from KILM, located miles away from Wilmington, North Carolina







STORIES FROM OUR PARTNERS